Weather History for KMFR - March, 2014

Change the Weather History Date:

Saturday, March 22, 2014

  Actual Average Record
Temperature  
Mean Temperature 49 °F 49 °F  
Max Temperature 68 °F 60 °F 83 °F (1939)
Min Temperature 30 °F 38 °F 24 °F (1966)
Degree Days  
Heating Degree Days 16 16  
Month to date heating degree days 295 380  
Since 1 July heating degree days 3665 3494  
Cooling Degree Days 0 0  
Month to date cooling degree days 0 0  
Year to date cooling degree days 0 0  
Moisture  
Dew Point 28 °F    
Average Humidity 49    
Maximum Humidity 82    
Minimum Humidity 15    
Precipitation  
Precipitation 0.00 in 0.05 in 1.01 in (1938)
Month to date precipitation 2.47 1.24  
Year to date precipitation 7.80 5.68  
Snow  
Snow 0.00 in 0.00 in - ()
Month to date snowfall 0.0 0.4  
Since 1 July snowfall 3.4 4.0  
Snow Depth 0.00 in    
Sea Level Pressure  
Sea Level Pressure 30.18 in    
Wind  
Wind Speed 2 mph (NNW)    
Max Wind Speed 12 mph    
Max Gust Speed 13 mph    
Visibility 10 miles    
Events      
T = Trace of Precipitation, MM = Missing Value Source: NWS Daily Summary

Daily Weather History Graph

Daily Weather History Graph

Search for Another Location

Airport or City:

Trip Planner

Search our weather history database for the weather conditions in past years. The results will help you decide how hot, cold, wet, or windy it might be!

Date:

Astronomy

Mar. 22, 2014 Rise Set
Actual Time 7:11 AM PDT 7:26 PM PDT
Civil Twilight 6:43 AM PDT 7:54 PM PDT
Nautical Twilight 6:10 AM PDT 8:27 PM PDT
Astronomical Twilight 5:36 AM PDT 9:01 PM PDT
Moon 12:56 AM PDT (3/22) 10:53 AM PDT (3/22)
Length of Visible Light 13h 11m
Length of Day
12h 15m
Waning Gibbous, 64% of the Moon is Illuminated
Mar 22
Waning Gibbous
Mar 23
Last Quarter
Mar 30
New
Apr 7
First Quarter
Apr 15
Full

Hourly Weather History & Observations

Time (PDT) Temp. Windchill Dew Point Humidity Pressure Visibility Wind Dir Wind Speed Gust Speed Precip Events Conditions
12:53 AM 39.9 °F - 26.1 °F 58% 30.18 in 10.0 mi Calm Calm - N/A   Clear
1:53 AM 37.0 °F - 28.0 °F 70% 30.19 in 10.0 mi Calm Calm - N/A   Clear
2:53 AM 35.1 °F - 28.0 °F 76% 30.19 in 10.0 mi Calm Calm - N/A   Clear
3:53 AM 34.0 °F - 28.0 °F 79% 30.20 in 10.0 mi Calm Calm - N/A   Clear
4:53 AM 33.1 °F - 27.0 °F 78% 30.21 in 10.0 mi Calm Calm - N/A   Clear
5:53 AM 33.1 °F - 26.1 °F 75% 30.22 in 10.0 mi Calm Calm - N/A   Clear
6:53 AM 32.0 °F - 26.1 °F 79% 30.24 in 10.0 mi Calm Calm - N/A   Clear
7:53 AM 32.0 °F - 26.1 °F 79% 30.25 in 10.0 mi Calm Calm - N/A   Clear
8:53 AM 35.1 °F 32.2 °F 28.9 °F 78% 30.25 in 10.0 mi NNE 3.5 mph - N/A   Clear
9:53 AM 39.0 °F - 30.0 °F 70% 30.25 in 10.0 mi Calm Calm - N/A   Clear
10:53 AM 43.0 °F - 30.9 °F 62% 30.24 in 10.0 mi Calm Calm - N/A   Clear
11:53 AM 48.9 °F - 30.9 °F 50% 30.21 in 10.0 mi Calm Calm - N/A   Clear
12:53 PM 54.0 °F - 32.0 °F 43% 30.19 in 10.0 mi SSW 3.5 mph - N/A   Clear
1:53 PM 60.1 °F - 30.0 °F 32% 30.15 in 10.0 mi Calm Calm - N/A   Clear
2:53 PM 63.0 °F - 28.9 °F 28% 30.12 in 10.0 mi Calm Calm - N/A   Clear
3:53 PM 66.0 °F - 26.1 °F 22% 30.10 in 10.0 mi NNE 5.8 mph - N/A   Clear
4:53 PM 66.9 °F - 21.0 °F 17% 30.09 in 10.0 mi Variable 3.5 mph - N/A   Clear
5:53 PM 68.0 °F - 19.0 °F 15% 30.08 in 10.0 mi NW 4.6 mph - N/A   Clear
6:53 PM 66.0 °F - 24.1 °F 20% 30.08 in 10.0 mi WNW 4.6 mph - N/A   Clear
7:53 PM 57.9 °F - 32.0 °F 37% 30.11 in 10.0 mi North 5.8 mph - N/A   Clear
8:53 PM 53.1 °F - 30.9 °F 43% 30.14 in 10.0 mi NNE 10.4 mph - N/A   Clear
9:53 PM 51.1 °F - 30.9 °F 46% 30.16 in 10.0 mi NNE 3.5 mph - N/A   Clear
10:53 PM 48.9 °F - 30.9 °F 50% 30.18 in 10.0 mi SW 3.5 mph - N/A   Clear
11:53 PM 46.0 °F 44.8 °F 30.9 °F 56% 30.18 in 10.0 mi South 3.5 mph - N/A   Clear